TimeCET,TemperatureF,Dew PointF,Humidity,Sea Level PressureIn,VisibilityMPH,Wind Direction,Wind SpeedMPH,Gust SpeedMPH,PrecipitationIn,Events,Conditions,WindDirDegrees,DateUTC
12:00 AM,62.6,59.0,88,30.06,6.2,SE,8.1,-,N/A,Rain,Light Rain,140,2012-11-07 23:00:00
12:30 AM,62.6,57.2,82,30.06,6.2,SSE,4.6,-,N/A,Rain,Light Rain,160,2012-11-07 23:30:00
1:00 AM,62.6,57.2,82,30.06,5.0,SE,3.5,-,N/A,Rain,Rain,140,2012-11-08 00:00:00
4:30 AM,60.8,57.2,88,29.95,6.2,ESE,16.1,-,N/A,Rain,Rain,110,2012-11-08 03:30:00
5:00 AM,62.6,57.2,82,29.98,6.2,East,3.5,-,N/A,Rain,Rain,100,2012-11-08 04:00:00
5:30 AM,62.6,57.2,82,29.98,6.2,ENE,8.1,-,N/A,Rain,Light Rain,70,2012-11-08 04:30:00
6:00 AM,60.8,57.2,88,29.95,6.2,ENE,10.4,-,N/A,Rain,Light Rain,60,2012-11-08 05:00:00
6:30 AM,60.8,57.2,88,29.98,6.2,North,8.1,-,N/A,Rain,Rain,350,2012-11-08 05:30:00
7:00 AM,60.8,57.2,88,29.92,6.2,ENE,17.3,-,N/A,,Scattered Clouds,60,2012-11-08 06:00:00
7:30 AM,60.8,57.2,88,29.95,6.2,ENE,13.8,-,N/A,,Scattered Clouds,70,2012-11-08 06:30:00
8:00 AM,62.6,57.2,82,29.95,6.2,East,13.8,-,N/A,,Scattered Clouds,80,2012-11-08 07:00:00
8:30 AM,62.6,57.2,82,29.95,6.2,East,13.8,-,N/A,,Scattered Clouds,90,2012-11-08 07:30:00
9:00 AM,62.6,57.2,82,29.95,6.2,East,12.7,-,N/A,,Scattered Clouds,80,2012-11-08 08:00:00
9:30 AM,62.6,57.2,82,29.98,6.2,Calm,Calm,-,N/A,,Scattered Clouds,0,2012-11-08 08:30:00
10:00 AM,62.6,59.0,88,29.98,6.2,East,5.8,-,N/A,Rain,Light Rain Showers,80,2012-11-08 09:00:00
10:30 AM,62.6,59.0,88,29.98,6.2,East,3.5,-,N/A,,Partly Cloudy,100,2012-11-08 09:30:00
11:00 AM,62.6,59.0,88,29.98,6.2,SSW,1.2,-,N/A,,Scattered Clouds,210,2012-11-08 10:00:00
11:30 AM,64.4,59.0,83,29.98,6.2,ESE,5.8,-,N/A,,Scattered Clouds,110,2012-11-08 10:30:00
12:00 PM,66.2,60.8,83,29.98,6.2,Calm,Calm,-,N/A,,Partly Cloudy,0,2012-11-08 11:00:00
12:30 PM,66.2,60.8,83,29.98,6.2,North,5.8,-,N/A,,Partly Cloudy,350,2012-11-08 11:30:00
1:00 PM,66.2,60.8,83,29.95,6.2,ENE,5.8,-,N/A,Rain,Light Rain,60,2012-11-08 12:00:00
1:30 PM,66.2,60.8,83,29.92,6.2,NE,4.6,-,N/A,,Scattered Clouds,40,2012-11-08 12:30:00
2:00 PM,68.0,60.8,78,29.95,6.2,Variable,2.3,-,N/A,Rain,Light Rain,0,2012-11-08 13:00:00
2:30 PM,66.2,60.8,83,29.95,5.0,Calm,Calm,-,N/A,Rain,Light Rain,0,2012-11-08 13:30:00
3:00 PM,64.4,60.8,88,29.92,5.0,East,10.4,-,N/A,Rain,Light Rain Showers,90,2012-11-08 14:00:00
3:30 PM,64.4,60.8,88,29.95,6.2,Variable,2.3,-,N/A,Rain,Light Rain,0,2012-11-08 14:30:00
4:00 PM,64.4,62.6,94,29.92,6.2,East,5.8,-,N/A,Rain,Light Rain,80,2012-11-08 15:00:00
4:30 PM,64.4,60.8,88,29.95,6.2,Variable,1.2,-,N/A,Rain,Light Rain,0,2012-11-08 15:30:00
4:36 PM,64.4,60.8,88,29.95,2.5,Calm,Calm,-,N/A,Rain,Rain Showers,0,2012-11-08 15:36:00
5:30 PM,62.6,60.8,94,29.95,6.2,NE,2.3,-,N/A,Rain,Light Rain,40,2012-11-08 16:30:00
5:43 PM,62.6,60.8,94,29.95,1.9,Calm,Calm,-,N/A,Rain,Rain,0,2012-11-08 16:43:00
6:00 PM,62.6,60.8,94,29.95,4.3,Variable,2.3,-,N/A,Rain,Light Rain,0,2012-11-08 17:00:00
6:30 PM,62.6,60.8,94,29.92,2.5,Variable,1.2,-,N/A,Rain,Rain Showers,0,2012-11-08 17:30:00
7:00 PM,62.6,60.8,94,29.95,3.7,Variable,1.2,-,N/A,Rain,Rain,0,2012-11-08 18:00:00
7:19 PM,62.6,60.8,94,29.95,6.2,Calm,Calm,-,N/A,,Light Drizzle,0,2012-11-08 18:19:00
7:30 PM,62.6,60.8,94,29.95,6.2,WSW,1.2,-,N/A,,Light Drizzle,250,2012-11-08 18:30:00
8:00 PM,62.6,60.8,94,29.95,3.1,NNE,1.2,-,N/A,Rain,Rain Showers,30,2012-11-08 19:00:00
8:17 PM,62.6,60.8,94,29.95,6.2,East,3.5,-,N/A,,Light Drizzle,90,2012-11-08 19:17:00
8:30 PM,62.6,60.8,94,29.95,6.2,NE,3.5,-,N/A,Rain,Light Rain,50,2012-11-08 19:30:00
9:00 PM,62.6,60.8,94,29.95,6.2,Variable,1.2,-,N/A,,Drizzle,0,2012-11-08 20:00:00
9:30 PM,62.6,60.8,94,29.95,5.0,Calm,Calm,-,N/A,,Mostly Cloudy,0,2012-11-08 20:30:00
10:00 PM,62.6,60.8,94,29.95,4.3,ENE,1.2,-,N/A,,Light Drizzle,60,2012-11-08 21:00:00
10:30 PM,62.6,60.8,94,29.98,4.3,NE,1.2,-,N/A,,Scattered Clouds,50,2012-11-08 21:30:00
11:00 PM,60.8,60.8,100,29.98,4.3,Calm,Calm,-,N/A,Rain,Rain,0,2012-11-08 22:00:00
11:30 PM,60.8,60.8,100,29.98,6.2,Calm,Calm,-,N/A,,Scattered Clouds,0,2012-11-08 22:30:00